Weather History for KCVX - May, 2013

Change the Weather History Date:

Wednesday, May 8, 2013

  Actual Average Record
Temperature  
Mean Temperature 59 °F -  
Max Temperature 71 °F 78 °F 76 °F (2014)
Min Temperature 47 °F 50 °F 35 °F (2011)
Degree Days  
Heating Degree Days 6    
Growing Degree Days 9 (Base 50)    
Moisture  
Dew Point 40 °F    
Average Humidity 51    
Maximum Humidity 88    
Minimum Humidity 25    
Precipitation  
Precipitation 0.00 in - - ()
Sea Level Pressure  
Sea Level Pressure 30.04 in    
Wind  
Wind Speed 3 mph (NW)    
Max Wind Speed 8 mph    
Max Gust Speed -    
Visibility 10 miles    
Events      
Averages and records for this station are not official NWS values.
T = Trace of Precipitation, MM = Missing Value Source: NWS Daily Summary

Daily Weather History Graph

Daily Weather History Graph

Search for Another Location

Airport or City:

Trip Planner

Search our weather history database for the weather conditions in past years. The results will help you decide how hot, cold, wet, or windy it might be!

Date:

Astronomy

May. 08, 2013 Rise Set
Actual Time 6:19 AM EDT 8:56 PM EDT
Civil Twilight 5:45 AM EDT 9:30 PM EDT
Nautical Twilight 5:03 AM EDT 10:12 PM EDT
Astronomical Twilight 4:15 AM EDT 11:01 PM EDT
Moon 5:30 AM EDT (5/8) 7:51 PM EDT (5/8)
Length of Visible Light 15h 44m
Length of Day
14h 37m
Waning Crescent, 2% of the Moon is Illuminated
May 8
Waning Crescent
May 9
New
May 18
First Quarter
May 25
Full
May 31
Last Quarter

Hourly Weather History & Observations

Time (EDT) Temp. Dew Point Humidity Pressure Visibility Wind Dir Wind Speed Gust Speed Precip Events Conditions
12:15 AM 62.1 °F 36.5 °F 39% 30.05 in 10.0 mi ESE 5.8 mph - N/A   Clear
12:34 AM 61.3 °F 37.6 °F 41% 30.05 in 10.0 mi ESE 5.8 mph - N/A   Clear
12:54 AM 60.3 °F 38.3 °F 44% 30.05 in 10.0 mi SE 3.5 mph - N/A   Clear
1:15 AM 56.8 °F 39.2 °F 52% 30.05 in 10.0 mi Calm Calm - N/A   Clear
1:34 AM 54.5 °F 39.7 °F 57% 30.05 in 10.0 mi Calm Calm - N/A   Clear
1:55 AM 53.4 °F 40.6 °F 62% 30.05 in 10.0 mi Calm Calm - N/A   Clear
2:14 AM 47.8 °F 39.6 °F 73% 30.05 in 10.0 mi Calm Calm - N/A   Clear
2:34 AM 47.5 °F 39.4 °F 73% 30.05 in 10.0 mi Calm Calm - N/A   Clear
2:55 AM 50.2 °F 41.9 °F 73% 30.05 in 10.0 mi ESE 3.5 mph - N/A   Clear
3:14 AM 49.6 °F 41.9 °F 75% 30.05 in 10.0 mi SE 3.5 mph - N/A   Clear
3:34 AM 49.1 °F 41.9 °F 76% 30.05 in 10.0 mi ESE 3.5 mph - N/A   Clear
3:54 AM 48.6 °F 42.6 °F 80% 30.04 in 10.0 mi SE 5.8 mph - N/A   Clear
4:14 AM 49.5 °F 43.2 °F 79% 30.04 in 10.0 mi SSE 3.5 mph - N/A   Clear
4:35 AM 49.5 °F 43.0 °F 78% 30.04 in 10.0 mi SSE 3.5 mph - N/A   Clear
4:54 AM 48.7 °F 43.2 °F 81% 30.04 in 10.0 mi SE 3.5 mph - N/A   Clear
5:14 AM 48.9 °F 43.5 °F 82% 30.04 in 10.0 mi SE 3.5 mph - N/A   Clear
5:35 AM 48.2 °F 43.7 °F 84% 30.04 in 10.0 mi SE 3.5 mph - N/A   Clear
5:54 AM 47.7 °F 43.9 °F 87% 30.04 in 10.0 mi Calm Calm - N/A   Clear
6:14 AM 47.3 °F 43.9 °F 88% 30.04 in 10.0 mi Calm Calm - N/A   Clear
6:35 AM 47.7 °F 43.0 °F 84% 30.05 in 10.0 mi SE 4.6 mph - N/A   Clear
6:54 AM 48.9 °F 43.7 °F 82% 30.05 in 10.0 mi SE 3.5 mph - N/A   Clear
7:14 AM 52.2 °F 43.7 °F 73% 30.05 in 10.0 mi SE 3.5 mph - N/A   Clear
7:34 AM 54.3 °F 43.5 °F 67% 30.06 in 10.0 mi SE 3.5 mph - N/A   Clear
7:54 AM 56.3 °F 42.8 °F 61% 30.06 in 10.0 mi Calm Calm - N/A   Clear
8:15 AM 58.5 °F 43.3 °F 57% 30.07 in 10.0 mi Calm Calm - N/A   Clear
8:34 AM 62.6 °F 41.2 °F 45% 30.07 in 10.0 mi Calm Calm - N/A   Clear
8:54 AM 65.1 °F 40.5 °F 40% 30.07 in 10.0 mi SW 4.6 mph - N/A   Clear
9:15 AM 66.4 °F 41.2 °F 40% 30.07 in 10.0 mi NNW 5.8 mph - N/A   Clear
9:34 AM 63.7 °F 45.1 °F 51% 30.07 in 10.0 mi NNW 3.5 mph - N/A   Clear
9:55 AM 61.5 °F 44.4 °F 53% 30.07 in 10.0 mi Calm Calm - N/A   Clear
10:14 AM 64.9 °F 45.9 °F 50% 30.07 in 10.0 mi Calm Calm - N/A   Clear
10:34 AM 61.7 °F 45.1 °F 55% 30.07 in 10.0 mi North 3.5 mph - N/A   Clear
10:55 AM 60.3 °F 45.7 °F 59% 30.07 in 10.0 mi NNW 4.6 mph - N/A   Clear
11:14 AM 63.7 °F 46.2 °F 53% 30.08 in 10.0 mi NNW 6.9 mph - N/A   Clear
11:35 AM 66.2 °F 46.6 °F 49% 30.08 in 10.0 mi NW 8.1 mph - N/A   Clear
11:55 AM 68.9 °F 44.6 °F 42% 30.07 in 10.0 mi West 6.9 mph - N/A   Clear
12:14 PM 69.8 °F 43.0 °F 38% 30.07 in 10.0 mi West 5.8 mph - N/A   Clear
12:35 PM 70.5 °F 41.0 °F 34% 30.07 in 10.0 mi West 5.8 mph - N/A   Clear
12:54 PM 69.6 °F 40.8 °F 35% 30.07 in 10.0 mi WNW 6.9 mph - N/A   Clear
1:14 PM 70.2 °F 40.1 °F 34% 30.07 in 10.0 mi WNW 6.9 mph - N/A   Clear
1:34 PM 70.5 °F 39.6 °F 32% 30.07 in 10.0 mi NW 6.9 mph - N/A   Clear
1:54 PM 70.7 °F 40.3 °F 33% 30.06 in 10.0 mi WNW 5.8 mph - N/A   Clear
2:15 PM 71.6 °F 39.4 °F 31% 30.05 in 10.0 mi NNW 4.6 mph - N/A   Clear
2:34 PM 71.4 °F 40.6 °F 33% 30.05 in 10.0 mi NW 6.9 mph - N/A   Clear
2:54 PM 69.8 °F 39.9 °F 34% 30.05 in 10.0 mi WNW 8.1 mph - N/A   Clear
3:15 PM 70.0 °F 41.2 °F 35% 30.05 in 10.0 mi WNW 6.9 mph - N/A   Clear
3:34 PM 70.3 °F 39.7 °F 33% 30.05 in 10.0 mi WNW 5.8 mph - N/A   Clear
3:54 PM 70.3 °F 39.6 °F 33% 30.05 in 10.0 mi WNW 4.6 mph - N/A   Clear
4:34 PM 70.0 °F 37.6 °F 31% 30.04 in 10.0 mi NW 4.6 mph - N/A   Clear
4:54 PM 70.0 °F 37.9 °F 31% 30.03 in 10.0 mi North 3.5 mph - N/A   Clear
5:14 PM 70.9 °F 36.9 °F 29% 30.02 in 10.0 mi Calm Calm - N/A   Clear
5:34 PM 71.1 °F 35.8 °F 27% 30.02 in 10.0 mi NW 3.5 mph - N/A   Clear
5:55 PM 71.2 °F 35.1 °F 27% 30.01 in 10.0 mi NW 5.8 mph - N/A   Clear
6:14 PM 69.4 °F 36.1 °F 29% 30.01 in 10.0 mi NNW 3.5 mph - N/A   Clear
6:34 PM 70.0 °F 35.1 °F 28% 30.01 in 10.0 mi NW 3.5 mph - N/A   Clear
6:55 PM 70.2 °F 32.5 °F 25% 30.01 in 10.0 mi NW 5.8 mph - N/A   Clear
7:14 PM 67.1 °F 35.4 °F 31% 30.01 in 10.0 mi NNW 4.6 mph - N/A   Clear
7:35 PM 65.8 °F 33.3 °F 30% 30.01 in 10.0 mi West 4.6 mph - N/A   Clear
7:55 PM 65.3 °F 35.1 °F 33% 30.01 in 10.0 mi West 3.5 mph - N/A   Clear
8:14 PM 65.3 °F 33.8 °F 31% 30.01 in 10.0 mi Calm Calm - N/A   Clear
8:35 PM 58.6 °F 35.6 °F 42% 30.01 in 10.0 mi North 5.8 mph - N/A   Clear
8:54 PM 52.5 °F 35.8 °F 53% 30.01 in 10.0 mi Calm Calm - N/A   Clear
9:15 PM 52.3 °F 35.6 °F 53% 30.01 in 10.0 mi Calm Calm - N/A   Clear
9:34 PM 54.0 °F 35.1 °F 49% 30.02 in 10.0 mi Calm Calm - N/A   Clear
9:54 PM 54.0 °F 37.8 °F 54% 30.02 in 10.0 mi Calm Calm - N/A   Clear
10:15 PM 54.5 °F 37.6 °F 53% 30.02 in 10.0 mi SE 3.5 mph - N/A   Clear
10:34 PM 52.9 °F 39.7 °F 61% 30.02 in 10.0 mi Calm Calm - N/A   Clear
10:54 PM 53.6 °F 41.2 °F 63% 30.02 in 10.0 mi Calm Calm - N/A   Clear
11:15 PM 52.9 °F 39.2 °F 60% 30.02 in 10.0 mi Calm Calm - N/A   Clear
11:34 PM 53.1 °F 39.6 °F 60% 30.02 in 10.0 mi ESE 3.5 mph - N/A   Clear
11:54 PM 54.0 °F 40.8 °F 61% 30.02 in 10.0 mi Calm Calm - N/A   Clear